CXI24Y GCFV-GCXO

Flight info

Callsign CXI24Y
Flight time 0h 29m
Altitude 21000
Route LARYS
Aircraft B738/M-SDE2E3FGHIRWXY/LB1

Departure

Time 2026-05-06 23:32
Airport Fuerteventura Airport (GCFV)

Arrival

Time 2026-05-07 00:01
Airport Tenerife Norte-Ciudad de La Laguna Airport (GCXO)
Time Latitude Longitude Altitude Speed Heading
2026-05-06 23:16 28.45166 -13.86660 97 ft 0 kts 271°
2026-05-06 23:27 28.45166 -13.86661 97 ft 2 kts 271°
2026-05-06 23:28 28.45153 -13.86709 98 ft 8 kts 220°
2026-05-06 23:28 28.45098 -13.86644 97 ft 17 kts 93°
2026-05-06 23:28 28.45045 -13.86571 94 ft 10 kts 184°
2026-05-06 23:28 28.44895 -13.86580 92 ft 33 kts 181°
2026-05-06 23:29 28.44640 -13.86590 67 ft 39 kts 181°
2026-05-06 23:29 28.44365 -13.86598 58 ft 40 kts 181°
2026-05-06 23:29 28.44088 -13.86607 55 ft 40 kts 181°
2026-05-06 23:29 28.43808 -13.86615 44 ft 41 kts 181°
2026-05-06 23:30 28.43576 -13.86624 38 ft 28 kts 181°
2026-05-06 23:30 28.43408 -13.86629 35 ft 18 kts 182°
2026-05-06 23:30 28.43307 -13.86582 32 ft 15 kts 110°
2026-05-06 23:30 28.43308 -13.86502 33 ft 9 kts 83°
2026-05-06 23:31 28.43336 -13.86444 32 ft 9 kts 21°
2026-05-06 23:31 28.43359 -13.86441 33 ft 0 kts
2026-05-06 23:31 28.43361 -13.86441 33 ft 4 kts
2026-05-06 23:32 28.43646 -13.86430 31 ft 90 kts
2026-05-06 23:32 28.44563 -13.86397 66 ft 173 kts
2026-05-06 23:32 28.45881 -13.86324 843 ft 198 kts 12°
2026-05-06 23:32 28.47153 -13.85661 2063 ft 198 kts 35°
2026-05-06 23:33 28.48216 -13.84822 3479 ft 184 kts 33°
2026-05-06 23:33 28.49273 -13.83967 4311 ft 187 kts 33°
2026-05-06 23:33 28.50381 -13.83105 4852 ft 201 kts 30°
2026-05-06 23:33 28.51679 -13.82307 5102 ft 224 kts 24°
2026-05-06 23:34 28.53151 -13.81521 5477 ft 243 kts 22°
2026-05-06 23:34 28.54748 -13.80672 5653 ft 269 kts 24°
2026-05-06 23:34 28.56461 -13.79732 6415 ft 272 kts 22°
2026-05-06 23:34 28.58220 -13.79007 7054 ft 274 kts
2026-05-06 23:35 28.60069 -13.79289 7905 ft 267 kts 335°
2026-05-06 23:35 28.61611 -13.80452 8651 ft 270 kts 313°
2026-05-06 23:35 28.62634 -13.82254 9309 ft 274 kts 290°
2026-05-06 23:35 28.63064 -13.84376 10116 ft 276 kts 276°
2026-05-06 23:36 28.63128 -13.86575 10604 ft 291 kts 268°
2026-05-06 23:36 28.62948 -13.88976 10764 ft 316 kts 263°
2026-05-06 23:36 28.62561 -13.91533 10966 ft 338 kts 258°
2026-05-06 23:36 28.61891 -13.94158 11401 ft 350 kts 251°
2026-05-06 23:37 28.60927 -13.96731 12148 ft 353 kts 245°
2026-05-06 23:37 28.59707 -13.99135 12881 ft 358 kts 238°
2026-05-06 23:37 28.58188 -14.01415 13610 ft 363 kts 232°
2026-05-06 23:37 28.56402 -14.03495 14297 ft 369 kts 225°
2026-05-06 23:38 28.54427 -14.05408 14921 ft 374 kts 228°
2026-05-06 23:38 28.52995 -14.07796 15545 ft 370 kts 250°
2026-05-06 23:38 28.52395 -14.10621 16253 ft 368 kts 268°
2026-05-06 23:38 28.52559 -14.13512 16928 ft 368 kts 284°
2026-05-06 23:39 28.53420 -14.16249 17580 ft 370 kts 297°
2026-05-06 23:39 28.54901 -14.18656 18037 ft 375 kts 313°
2026-05-06 23:39 28.56718 -14.20828 18041 ft 381 kts 307°
2026-05-06 23:39 28.58140 -14.23430 18144 ft 393 kts 300°
2026-05-06 23:40 28.59457 -14.26194 18495 ft 400 kts 299°
2026-05-06 23:40 28.60764 -14.28958 18998 ft 402 kts 299°
2026-05-06 23:40 28.62093 -14.31748 19669 ft 399 kts 300°
2026-05-06 23:40 28.63428 -14.34522 20376 ft 396 kts 300°
2026-05-06 23:41 28.64757 -14.37264 20873 ft 396 kts 301°
2026-05-06 23:41 28.66083 -14.39986 21059 ft 397 kts 301°
2026-05-06 23:41 28.67428 -14.42742 21053 ft 396 kts 301°
2026-05-06 23:41 28.68765 -14.45478 21063 ft 396 kts 301°
2026-05-06 23:42 28.70106 -14.48223 21061 ft 396 kts 301°
2026-05-06 23:42 28.71446 -14.50968 21062 ft 396 kts 301°
2026-05-06 23:42 28.72786 -14.53715 21062 ft 397 kts 301°
2026-05-06 23:42 28.73675 -14.55539 21060 ft 397 kts 301°
2026-05-06 23:43 28.75451 -14.59186 21054 ft 397 kts 301°
2026-05-06 23:43 28.76795 -14.61948 21057 ft 397 kts 301°
2026-05-06 23:43 28.77687 -14.63781 21061 ft 397 kts 301°
2026-05-06 23:43 28.79027 -14.66540 21065 ft 398 kts 301°
2026-05-06 23:44 28.80370 -14.69304 21061 ft 398 kts 301°
2026-05-06 23:44 28.81713 -14.72072 21062 ft 398 kts 301°
2026-05-06 23:44 28.83057 -14.74841 21062 ft 398 kts 301°
2026-05-06 23:44 28.84381 -14.77572 21062 ft 398 kts 301°
2026-05-06 23:45 28.85704 -14.80348 21058 ft 399 kts 298°
2026-05-06 23:45 28.86494 -14.83405 21071 ft 405 kts 281°
2026-05-06 23:45 28.86503 -14.86650 21058 ft 413 kts 265°
2026-05-06 23:45 28.85882 -14.89823 21069 ft 416 kts 260°
2026-05-06 23:46 28.85137 -14.93024 21059 ft 417 kts 259°
2026-05-06 23:46 28.84369 -14.96215 21042 ft 417 kts 259°
2026-05-06 23:46 28.83601 -14.99402 21061 ft 416 kts 259°
2026-05-06 23:46 28.82850 -15.02558 21057 ft 417 kts 259°
2026-05-06 23:47 28.82097 -15.05765 21056 ft 417 kts 259°
2026-05-06 23:47 28.81354 -15.08962 21059 ft 417 kts 259°
2026-05-06 23:47 28.80612 -15.12168 21062 ft 417 kts 259°
2026-05-06 23:47 28.79882 -15.15335 21058 ft 417 kts 259°
2026-05-06 23:48 28.79145 -15.18534 21063 ft 417 kts 259°
2026-05-06 23:48 28.78405 -15.21746 21062 ft 417 kts 259°
2026-05-06 23:48 28.77666 -15.24948 21058 ft 417 kts 259°
2026-05-06 23:48 28.76926 -15.28151 21064 ft 417 kts 259°
2026-05-06 23:49 28.76186 -15.31348 21053 ft 417 kts 259°
2026-05-06 23:49 28.75454 -15.34509 21061 ft 415 kts 259°
2026-05-06 23:49 28.74726 -15.37632 21038 ft 400 kts 259°
2026-05-06 23:49 28.74017 -15.40673 20689 ft 392 kts 259°
2026-05-06 23:50 28.73319 -15.43668 20251 ft 388 kts 259°
2026-05-06 23:50 28.71951 -15.49550 19316 ft 380 kts 259°
2026-05-06 23:50 28.71275 -15.52451 18838 ft 377 kts 259°
2026-05-06 23:51 28.70613 -15.55292 18351 ft 375 kts 259°
2026-05-06 23:51 28.69944 -15.58161 17806 ft 372 kts 259°
2026-05-06 23:51 28.69280 -15.60999 17296 ft 368 kts 258°
2026-05-06 23:51 28.68622 -15.63809 16801 ft 365 kts 258°
2026-05-06 23:52 28.67964 -15.66590 16316 ft 362 kts 256°
2026-05-06 23:52 28.66988 -15.69197 15769 ft 365 kts 243°
2026-05-06 23:52 28.65554 -15.71599 15227 ft 367 kts 236°
2026-05-06 23:52 28.64018 -15.73913 14691 ft 366 kts 236°
2026-05-06 23:53 28.62481 -15.76222 14158 ft 364 kts 236°
2026-05-06 23:53 28.60954 -15.78523 13603 ft 363 kts 236°
2026-05-06 23:53 28.59438 -15.80818 13001 ft 361 kts 236°
2026-05-06 23:53 28.57956 -15.83068 12430 ft 359 kts 236°
2026-05-06 23:54 28.56462 -15.85341 11862 ft 357 kts 235°
2026-05-06 23:54 28.54977 -15.87602 11301 ft 355 kts 235°
2026-05-06 23:54 28.53501 -15.89849 10749 ft 352 kts 235°
2026-05-06 23:54 28.52036 -15.92079 10204 ft 350 kts 235°
2026-05-06 23:55 28.50602 -15.94261 9647 ft 348 kts 234°
2026-05-06 23:55 28.49161 -15.96452 9057 ft 345 kts 235°
2026-05-06 23:55 28.47725 -15.98635 8477 ft 343 kts 235°
2026-05-06 23:55 28.46296 -16.00806 7906 ft 342 kts 235°
2026-05-06 23:56 28.44868 -16.02976 7343 ft 341 kts 234°
2026-05-06 23:56 28.43448 -16.05132 6790 ft 339 kts 236°
2026-05-06 23:56 28.42036 -16.07273 6233 ft 338 kts 236°
2026-05-06 23:56 28.40656 -16.09434 5650 ft 336 kts 241°
2026-05-06 23:57 28.40002 -16.11879 5269 ft 319 kts 272°
2026-05-06 23:57 28.40518 -16.14095 5141 ft 269 kts 305°
2026-05-06 23:57 28.41548 -16.15681 5101 ft 233 kts 305°
2026-05-06 23:57 28.42326 -16.17225 5037 ft 215 kts 300°
2026-05-06 23:58 28.42922 -16.18675 5016 ft 191 kts 297°
2026-05-06 23:58 28.43416 -16.20011 4912 ft 178 kts 296°
2026-05-06 23:58 28.43893 -16.21291 4606 ft 171 kts 299°
2026-05-06 23:58 28.44377 -16.22497 4235 ft 168 kts 296°
2026-05-06 23:59 28.44812 -16.23734 3775 ft 169 kts 295°
2026-05-06 23:59 28.45213 -16.24940 3551 ft 155 kts 295°
2026-05-06 23:59 28.45592 -16.26084 3319 ft 153 kts 295°
2026-05-06 23:59 28.45967 -16.27215 3152 ft 153 kts 295°
2026-05-07 00:00 28.46344 -16.28356 2903 ft 155 kts 295°
2026-05-07 00:00 28.46729 -16.29515 2682 ft 156 kts 293°
2026-05-07 00:00 28.47109 -16.30662 2474 ft 153 kts 292°
2026-05-07 00:00 28.47481 -16.31788 2225 ft 152 kts 290°
2026-05-07 00:01 28.47852 -16.32908 2046 ft 151 kts 289°
2026-05-07 00:01 28.48185 -16.33909 2044 ft 108 kts 291°
2026-05-07 00:01 28.48385 -16.34517 2066 ft 71 kts 290°
2026-05-07 00:01 28.48538 -16.34981 2087 ft 49 kts 290°
2026-05-07 00:02 28.48644 -16.35224 2084 ft 23 kts 306°
2026-05-07 00:02 28.48709 -16.35314 2080 ft 15 kts 327°
2026-05-07 00:02 28.48747 -16.35256 2075 ft 12 kts 103°
2026-05-07 00:02 28.48709 -16.35136 2080 ft 20 kts 111°
2026-05-07 00:03 28.48662 -16.34994 2083 ft 19 kts 111°
2026-05-07 00:03 28.48633 -16.34910 2082 ft 11 kts 111°
2026-05-07 00:03 28.48607 -16.34824 2079 ft 12 kts 93°
2026-05-07 00:03 28.48656 -16.34765 2074 ft 8 kts 35°
2026-05-07 00:04 28.48687 -16.34741 2073 ft 3 kts 33°
2026-05-07 00:04 28.48692 -16.34737 2073 ft 0 kts 33°